Powrót do katalogu

COSMOS 252 DEB

AktywnyLEO
NORAD 19479·DEBRIS·🇷🇺 Russia

Wystrzelony Nov 1, 1968 z Baikonur Cosmodrome

Loading…

Następne Przeloty (najbliższe 24 godziny)

TLE

ŚwieżeSource: Space-Track

Epoka: Sep 13, 2026, 12:39 UTC

1 19479U 68097ET  26256.52735416  .00003736  00000-0  64108-3 0  9995
2 19479  62.7899 193.7796 0576637  90.0026 276.7064 13.97519744904719

Śledź COSMOS 252 DEB w czasie rzeczywistym z AllMySat

Download on the App Store